sat.trackr.live / text

‹ back to catalog

STARLINK-36038

NORAD 66804 · 2025-278P

PAYLOAD ACTIVE UNKNOWN

§ Identity

Operator
Country
US
Launch date
2025-12-01
Launch site
AFETR
Launch vehicle
Mass (kg)
RCS (m²)

Purposes: comms

External: N2YO · Heavens-Above · Gunter

§ Orbital elements

Epoch: 2026-05-25T00:16:37.430112Z

Period
94.27 min
Inclination
42.9969°
Eccentricity
0.0001523
Mean motion
15.27583017 rev/d
Perigee alt
482.0 km
Apogee alt
484.1 km
Semi-major
6,861.2 km
B*
3.2970e-4
RAAN
43.1626°
Arg perigee
274.6266°
Mean anomaly
85.4412°
Rev number
2,688

§ Raw data

STARLINK-360381 66804U 25278P   26145.01154433  .00008822  00000+0  32970-3 0  99902 66804  42.9969  43.1626 0001523 274.6266  85.4412 15.27583017 26888

JSON: /api/v1/satellites/66804 · /tle

For live sub-satellite position, see the globe view (requires WebGL).

§ Visibility from observer

Set your observer location to see the next 7 days of passes ≥ 10°. The values pass through the URL so the page stays shareable.

No JS? Fill the form by hand. The geolocation button needs JavaScript.